Weather History for Owensboro, KY

Change the Weather History Date:

Wednesday, August 7, 2013

  Actual Average Record
Temperature  
Mean Temperature 78 °F -  
Max Temperature 86 °F 86 °F 99 °F (2007)
Min Temperature 70 °F 64 °F 50 °F (1990)
Cooling Degree Days 13    
Growing Degree Days 28 (Base 50)    
Moisture  
Dew Point 73 °F    
Average Humidity 94    
Maximum Humidity 100    
Minimum Humidity 67    
Precipitation  
Precipitation 0.00 in - - ()
Sea Level Pressure  
Sea Level Pressure 29.92 in    
Wind  
Wind Speed 2 mph (SE)    
Max Wind Speed 12 mph    
Max Gust Speed -    
Visibility 5 miles    
Events Fog    
Averages and records for this station are not official NWS values.
T = Trace of Precipitation, MM = Missing Value Source: NWS Daily Summary

Daily Weather History Graph

Daily Weather History Graph

Search for Another Location

Airport:

Trip Planner

Search our weather history database for the weather conditions in past years. The results will help you decide how hot, cold, wet, or windy it might be!

Date:

Astronomy

Aug. 07, 2013 Rise Set
Actual Time 5:57 AM CDT 7:50 PM CDT
Civil Twilight 5:29 AM CDT 8:19 PM CDT
Nautical Twilight 4:54 AM CDT 8:53 PM CDT
Astronomical Twilight 4:17 AM CDT 9:30 PM CDT
Moon 6:43 AM CDT (8/7) 8:00 PM CDT (8/7)
Length of Visible Light 14h 50m
Length of Day
13h 53m
New Moon, 1% of the Moon is Illuminated
Aug 7
New Moon
Aug 14
First Quarter
Aug 20
Full
Aug 28
Last Quarter
Sep 5
New

Hourly Weather History & Observations

Time (CDT) Temp. Heat Index Dew Point Humidity Pressure Visibility Wind Dir Wind Speed Gust Speed Precip Events Conditions
12:10 AM 73.4 °F - 73.4 °F 100% 29.94 in 1.5 mi Calm Calm - N/A   Clear
12:19 AM 71.6 °F - 71.6 °F 100% 29.94 in 1.0 mi Calm Calm - N/A   Clear
12:22 AM 71.6 °F - 71.6 °F 100% 29.94 in 0.5 mi Calm Calm - N/A Fog Fog
12:30 AM 71.6 °F - 71.6 °F 100% 29.94 in 1.0 mi Calm Calm - N/A   Clear
12:43 AM 71.6 °F - 71.6 °F 100% 29.95 in 1.5 mi Calm Calm - N/A   Clear
12:48 AM 71.6 °F - 71.6 °F 100% 29.95 in 1.0 mi Calm Calm - N/A   Clear
12:56 AM 72.0 °F - 72.0 °F 100% 29.94 in 0.5 mi Calm Calm - N/A Fog Fog
1:04 AM 71.6 °F - 71.6 °F 100% 29.95 in 0.2 mi Calm Calm - N/A Fog Fog
1:19 AM 71.6 °F - 71.6 °F 100% 29.95 in 0.5 mi Calm Calm - N/A Fog Fog
1:29 AM 71.6 °F - 71.6 °F 100% 29.94 in 0.2 mi Calm Calm - N/A Fog Fog
1:41 AM 71.6 °F - 71.6 °F 100% 29.94 in 0.8 mi Calm Calm - N/A   Clear
1:44 AM 71.6 °F - 71.6 °F 100% 29.94 in 1.2 mi Calm Calm - N/A   Clear
1:47 AM 71.6 °F - 71.6 °F 100% 29.94 in 2.0 mi Calm Calm - N/A   Clear
1:56 AM 72.0 °F - 72.0 °F 100% 29.93 in 1.8 mi Calm Calm - N/A   Clear
2:02 AM 71.6 °F - 71.6 °F 100% 29.93 in 1.0 mi Calm Calm - N/A   Clear
2:07 AM 71.6 °F - 71.6 °F 100% 29.93 in 0.5 mi Calm Calm - N/A Fog Fog
2:16 AM 71.6 °F - 71.6 °F 100% 29.93 in 0.2 mi Calm Calm - N/A Fog Fog
2:21 AM 71.6 °F - 71.6 °F 100% 29.93 in 0.8 mi ESE 3.5 mph - N/A   Clear
2:23 AM 71.6 °F - 71.6 °F 100% 29.92 in 1.2 mi ESE 5.8 mph - N/A   Clear
2:26 AM 71.6 °F - 71.6 °F 100% 29.92 in 2.0 mi ESE 6.9 mph - N/A   Clear
2:42 AM 71.6 °F - 71.6 °F 100% 29.92 in 3.0 mi ESE 5.8 mph - N/A   Clear
2:56 AM 72.0 °F - 72.0 °F 100% 29.91 in 4.0 mi ESE 4.6 mph - N/A   Scattered Clouds
3:36 AM 71.6 °F - 71.6 °F 100% 29.90 in 4.0 mi ESE 3.5 mph - N/A   Mostly Cloudy
3:47 AM 71.6 °F - 71.6 °F 100% 29.89 in 3.0 mi ESE 5.8 mph - N/A   Scattered Clouds
3:56 AM 72.0 °F - 72.0 °F 100% 29.89 in 3.0 mi ESE 4.6 mph - N/A   Partly Cloudy
4:28 AM 71.6 °F - 71.6 °F 100% 29.90 in 2.5 mi ESE 4.6 mph - N/A   Clear
4:40 AM 71.6 °F - 71.6 °F 100% 29.90 in 3.0 mi ESE 3.5 mph - N/A   Clear
4:56 AM 70.9 °F - 70.9 °F 100% 29.90 in 3.0 mi SE 4.6 mph - N/A   Clear
5:56 AM 72.0 °F - 72.0 °F 100% 29.91 in 3.0 mi Calm Calm - N/A   Mostly Cloudy
6:56 AM 72.9 °F - 72.9 °F 100% 29.91 in 4.0 mi ESE 6.9 mph - N/A   Scattered Clouds
7:56 AM 73.9 °F - 73.9 °F 100% 29.92 in 4.0 mi SE 8.1 mph - N/A   Mostly Cloudy
8:04 AM 73.4 °F - 73.4 °F 100% 29.93 in 4.0 mi SE 6.9 mph - N/A   Mostly Cloudy
8:56 AM 75.9 °F - 75.9 °F 100% 29.95 in 5.0 mi SSE 6.9 mph - N/A   Overcast
9:56 AM 77.9 °F - 75.9 °F 94% 29.94 in 6.0 mi South 9.2 mph - N/A   Overcast
10:56 AM 79.9 °F - 74.8 °F 85% 29.93 in 10.0 mi Calm Calm - N/A   Scattered Clouds
11:56 AM 81.9 °F 88.9 °F 75.9 °F 82% 29.94 in 10.0 mi SSW 8.1 mph - N/A   Partly Cloudy
12:13 PM 80.6 °F 86.2 °F 75.2 °F 84% 29.95 in 10.0 mi SSW 11.5 mph - N/A   Mostly Cloudy
12:29 PM 80.6 °F 86.2 °F 75.2 °F 84% 29.94 in 10.0 mi South 9.2 mph - N/A   Scattered Clouds
12:56 PM 81.0 °F 87.3 °F 75.9 °F 85% 29.93 in 10.0 mi SSE 8.1 mph - N/A   Partly Cloudy
1:56 PM 82.9 °F 90.8 °F 75.9 °F 79% 29.92 in 10.0 mi South 6.9 mph - N/A   Scattered Clouds
2:56 PM 83.8 °F 90.8 °F 73.9 °F 72% 29.90 in 10.0 mi South 6.9 mph - N/A   Scattered Clouds
3:56 PM 84.9 °F 92.1 °F 73.9 °F 69% 29.88 in 10.0 mi SSE 6.9 mph - N/A   Partly Cloudy
4:56 PM 86.0 °F 93.8 °F 73.9 °F 67% 29.87 in 10.0 mi SE 9.2 mph - N/A   Partly Cloudy
5:56 PM 82.9 °F 88.5 °F 72.9 °F 71% 29.89 in 10.0 mi SSE 5.8 mph - N/A   Scattered Clouds
6:56 PM 81.9 °F 87.7 °F 73.9 °F 77% 29.89 in 10.0 mi South 4.6 mph - N/A   Mostly Cloudy
7:56 PM 79.9 °F - 73.9 °F 82% 29.89 in 10.0 mi SSW 4.6 mph - N/A   Clear
8:56 PM 79.0 °F - 73.9 °F 84% 29.91 in 10.0 mi Calm Calm - N/A   Partly Cloudy
9:56 PM 77.0 °F - 74.8 °F 93% 29.92 in 10.0 mi SE 5.8 mph - N/A   Partly Cloudy
10:56 PM 77.9 °F - 74.8 °F 90% 29.93 in 10.0 mi Calm Calm - N/A   Partly Cloudy
11:56 PM 75.9 °F - 73.9 °F 94% 29.94 in 10.0 mi Calm Calm - N/A   Partly Cloudy